Погода в Пителино

Россия / Рязанская область     54°34′31″N   41°48′55″E
темп.,
°C
ветер,
м/с
пор.,
м/с
влажн.,
%
обл.,
%
осадки,
мм/ч
давл.,
гПа
погр.,
м
9 мая, вс
вс900:00+11ю61492100 0.7 1005607
03:00+12ююв61298100 3.4 1004590
06:00+11юз2496100 2.9 1004178
09:00+10ссз1297100 8.4 1004152
12:00+9зсз5995100 3.4 1006494
15:00+9зюз3593100 6.8 1009463
18:00+7зсз5893100 0.8 1012526
21:00+5сз5894100 1.0 1015538
10 мая, пн
пн1000:00+5ссз51095100 0.0 1017639
03:00+6ссз61193100 0.0 1019736
06:00+6с71291100 0.0 1021677
09:00+6с71385100 0.1 1023610
12:00+8ссв6978100 0.1 1024715
15:00+9св51078100 0.1 1024674
18:00+10св5118199 0.1 1025771
21:00+8ссв51386100 0.1 1026451
11 мая, вт
вт1100:00+8ссв61490100 0.0 1025382
03:00+8св61487100 0.0 1025434
06:00+8ссв6148879 0.1 1026444
09:00+13св71178100 0.1 1026557
12:00+17всв6970100 0.0 1026791
15:00+19всв5969100 0.0 10251033
18:00+18всв6117914 1.3 1025478
21:00+14св413944 2.1 1025277
12 мая, ср
ср1200:00+13в4139493 0.2 1025385
03:00+12с239567 0.2 102558
06:00+12в2497100 0.1 1025113
09:00+14св3492100 0.4 1025194
12:00+16в51188100 0.1 1025602
15:00+18в71278100 0.1 1025923
18:00+14в31188100 0.6 1024371
21:00+14в41288100 0.6 1023354
13 мая, чт
чт1300:00+14вюв4119194 0.3 1023281
03:00+13в41191100 0.4 1023288
06:00+13в4128970 0.3 1023321
09:00+17вюв51075100 0.3 1022515
12:00+18вюв596767 0.1 1022646
15:00+17вюв397996 0.1 1021291
18:00+18юв6117761 0.0 1021802
21:00+16вюв4108464 0.0 1021341